Retour au catalogue

UND ROADS 2

ActifScienceSSO
NORAD 64549·PAYLOAD·🇺🇸 United States

Lancé Jun 23, 2025 depuis Vandenberg Space Force Base

Loading…

Prochains Passages (prochaines 24 heures)

TLE

FraisSource: Space-Track

Époque: Sep 13, 2026, 20:52 UTC

1 64549U 25135X   26256.86980408  .00004901  00000-0  20060-3 0  9993
2 64549  97.4869  12.9049 0002441 120.2987 239.8492 15.24790257 68427

Suivez UND ROADS 2 en temps réel avec AllMySat

Download on the App Store